Regional Weather Roundup
Issued by NWS Little Rock, AR

Home | Current Version | Previous Version | Graphics & Text | Print | Product List | Glossary On
Versions: 1 2 3 4 5 6 7 8 9 10 11 12 13 14 15 16 17 18 19 20 21 22 23 24 25 26 27
000
ASUS44 KLZK 230505
RWRLZK

WEATHER ROUNDUP FOR ARKANSAS
NATIONAL WEATHER SERVICE LITTLE ROCK AR
1200 AM CDT THU OCT 23 2014

NOTE: "FAIR" INDICATES FEW OR NO CLOUDS BELOW 12,000 FEET WITH NO
SIGNIFICANT WEATHER AND/OR OBSTRUCTIONS TO VISIBILITY.

ARZ001-003-010-029-230600-
NORTHWEST ARKANSAS

CITY           SKY/WX    TMP DP  RH WIND       PRES   REMARKS
FAYETTEVILLE   PTCLDY    49  48  97 CALM      30.17F
FORT SMITH     MOCLDY    57  53  86 NE6       30.16F
HARRISON       CLEAR     49  48  97 SE6       30.19F
BENTONVILLE    PTCLDY    55  48  76 SE6       30.16F
ROGERS         PTCLDY    56  51  84 SE7       30.18F
SILOAM SPGS    CLOUDY    55  46  71 SE5       30.17F
HIGHFILL       MOCLDY    56  50  80 CALM      30.16F
$$

ARZ004-005-016-230600-
NORTH CENTRAL ARKANSAS

CITY           SKY/WX    TMP DP  RH WIND       PRES   REMARKS
BATESVILLE     CLEAR     46  43  87 CALM      30.22S
FLIPPIN        CLEAR     48  43  81 CALM      30.21S
MTN HOME       CLEAR     51  42  71 SE3       30.20S
$$

ARZ040-041-230600-
WEST CENTRAL ARKANSAS

CITY           SKY/WX    TMP DP  RH WIND       PRES   REMARKS
MENA           CLEAR     50  50 100 CALM      30.19F
MOUNT IDA      CLEAR     50  49  96 CALM      30.16F FOG
$$

ARZ009-017-025-026-028-230600-
NORTHEAST ARKANSAS

CITY           SKY/WX    TMP DP  RH WIND       PRES   REMARKS
CORNING        FAIR      46  43  87 NE7       30.21F
JONESBORO      CLEAR     51  44  77 N6        30.21F
NEWPORT        CLEAR     47  44  89 NW7       30.23R
WALNUT RIDGE   CLEAR     48  39  71 NE5       30.21F
BLYTHEVILLE    CLEAR     46  43  89 NE5       30.21F
$$

ARZ022-023-033-042-044-230600-
CENTRAL ARKANSAS

CITY           SKY/WX    TMP DP  RH WIND       PRES   REMARKS
LITTLE ROCK    PTCLDY    51  46  83 CALM      30.20F
N LITTLE ROCK  PTCLDY    53  46  75 NE6       30.20F
JACKSONVILLE   CLEAR     46  42  88 CALM      30.19F
SEARCY         CLEAR     46  44  93 N3        30.21F
HOT SPRINGS    CLEAR     50  46  86 CALM      30.19F
RUSSELLVILLE   CLEAR     51  47  86 CALM      30.19S
$$

ARZ036-230600-
EAST ARKANSAS

CITY           SKY/WX    TMP DP  RH WIND       PRES   REMARKS
WEST MEMPHIS   CLEAR     47  44  90 NE3       30.18S
$$

ARZ050-053-066-070-073-230600-
SOUTHWEST ARKANSAS

CITY           SKY/WX    TMP DP  RH WIND       PRES   REMARKS
ARKADELPHIA    FAIR      51  51 100 CALM      30.19F FOG
CAMDEN         FOG       48  46  93 CALM      30.17F VSB<1/4
TEXARKANA      MOCLDY    54  52  93 E3        30.16F
EL DORADO      CLEAR     51  50  96 CALM      30.17F
DE QUEEN       PTCLDY    54  53  97 CALM      30.15S FOG
$$

ARZ056-057-069-230600-
SOUTHEAST ARKANSAS

CITY           SKY/WX    TMP DP  RH WIND       PRES   REMARKS
PINE BLUFF     CLEAR     51  45  79 NW3       30.19F
STUTTGART      CLEAR     46  43  87 N8        30.20F
MONTICELLO     CLEAR     48  46  93 CALM      30.17F

$$





USA.gov is the U.S. government's official web portal to all federal, state and local government web resources and services.